Weather Roundup
Issued by NWS

Home | Current Version | Previous Version | Graphics & Text | Print | Product List | Glossary Off
Versions: 1 2 3 4 5 6 7 8 9 10 11 12 13 14 15 16 17 18 19 20 21 22 23 24 25 26 27 28 29 30 31 32 33 34 35 36 37 38 39 40 41 42 43 44 45 46 47 48 49 50

000
NZUS93 KARX 310259
HRRWXR

CURRENT HOURLY OBSERVATIONS ACROSS
MUCH OF THE UPPER MISSISSIPPI VALLEY
NATIONAL WEATHER SERVICE LA CROSSE WI
1000 PM CDT THU OCT 30 2014


...SOUTHEAST MINNESOTA...


CITY           SKY/WX    TMP DP  RH WIND       PRES   REMARKS
ROCHESTER      CLOUDY    41  29  62 N24G33    30.21R
ROCHESTER/MAYO CLOUDY    40  27  59 NW16G24   30.21R WCI  32
WINONA         CLOUDY    43  30  61 N18G25    30.19R
AUSTIN         CLOUDY    43  30  61 N17G26    30.21R
ALBERT LEA     CLOUDY    41  30  65 NW15G25   30.24R
DODGE CENTER   CLOUDY    39  28  65 NW16G23   30.22R WCI  30
PRESTON        CLOUDY    40  31  69 N17G26    30.18R WCI  32
OWATONNA       PTCLDY    41  25  52 N22G28    30.25R
FARIBAULT      CLOUDY    39  25  56 NW13G18   30.27R WCI  32
$$

...ELSEWHERE IN MINNESOTA...


CITY           SKY/WX    TMP DP  RH WIND       PRES   REMARKS
MINNEAPOLIS    MOCLDY    37  14  38 N24G38    30.30R WCI  26
INTNL FALLS    CLOUDY    29  17  61 N21G28    30.41R WCI  16
DULUTH         MOCLDY    29  19  66 N25G37    30.26R WCI  14
RED WING       CLOUDY    41  25  52 N18G32    30.23R
REDWOOD FALLS  MOCLDY    35  21  56 N13G25    30.38R WCI  26
MANKATO        CLOUDY    39  21  48 NW22G31   30.30R WCI  29
WORTHINGTON    CLOUDY    34  23  64 N30G36    30.38R WCI  20
FAIRMONT       CLOUDY    39  25  56 N21G30    30.30R WCI  29
$$

...SOUTHWEST WISCONSIN...


CITY           SKY/WX    TMP DP  RH WIND       PRES   REMARKS
LA CROSSE      CLOUDY    46  31  55 N15       30.15R
PRAIRIE DU CHI CLOUDY    47  37  68 NW7       30.12R
BOSCOBEL       CLOUDY    48  37  65 NW8       30.12R
LONE ROCK      NOT AVBL
PLATTEVILLE    CLOUDY    46  39  76 W6        30.10R
FORT MC COY    CLOUDY    43  31  62 NW13      30.14R
VIROQUA        CLOUDY    42  35  73 N17G26    30.11R
WIS DELLS      CLOUDY    45  35  66 NW7       30.07R
$$

...ELSEWHERE IN WISCONSIN...


CITY           SKY/WX    TMP DP  RH WIND       PRES   REMARKS
MILWAUKEE      CLOUDY    48  34  58 W7        30.03S
MADISON        LGT RAIN  46  37  71 NW7       30.06R
GREEN BAY      CLOUDY    44  34  67 NW12      30.02R
EAU CLAIRE     CLOUDY    40  29  64 MISG      30.18R
BLACK RVR FLS  CLOUDY    43  29  57 NW10G16   30.13R
MEDFORD        CLOUDY    36  30  79 N18G24    30.08R WCI  25
WAUSAU         CLOUDY    40  30  67 NW14      30.05R WCI  32
WIS RAPIDS     CLOUDY    42  32  67 NW16G22   30.09R
MARSHFIELD     LGT RAIN  38  33  82 N22G32    30.09R WCI  27
RICE LAKE      CLOUDY    35  22  60 NW15G29   30.23R WCI  25
$$

...NORTHEAST IOWA...


CITY           SKY/WX    TMP DP  RH WIND       PRES   REMARKS
DECORAH        CLOUDY    45  36  70 N17G25    30.14R
MASON CITY     CLOUDY    43  34  70 NW23G31   30.23R
CHARLES CITY   CLOUDY    46  36  66 N24G35    30.19R
OELWEIN        CLOUDY    46  37  71 N16       30.15R
$$

...ELSEWHERE IN IOWA...


CITY           SKY/WX    TMP DP  RH WIND       PRES   REMARKS
DES MOINES     CLOUDY    52  38  58 N14       30.20R
IOWA CITY      CLOUDY    49  40  71 N5        30.13R
FORT DODGE     CLOUDY    43  34  70 N9G24     30.27R
$$

...NORTHERN ILLINOIS...


CITY           SKY/WX    TMP DP  RH WIND       PRES   REMARKS
CHICAGO-OHARE  CLOUDY    46  36  68 W6        30.05R
CHICAGO-MIDWAY CLOUDY    49  37  63 W6        30.05S
MOLINE         CLOUDY    46  39  76 CALM      30.10R
ROCKFORD       CLOUDY    47  36  65 NW7       30.09R
PEORIA         CLOUDY    46  43  89 CALM      30.08S
$$

NOTE: "FAIR" INDICATES FEW OR NO CLOUDS BELOW 12,000 FEET WITH NO
SIGNIFICANT WEATHER AND/OR OBSTRUCTIONS TO VISIBILITY. WIND
SPEEDS ARE IN MILES-PER-HOUR.



USA.gov is the U.S. government's official web portal to all federal, state and local government web resources and services.